Weather History for Kremmling, CO

Change the Weather History Date:

Monday, February 18, 2013

  Actual Average (KEGE) Record (KEGE)
Temperature  
Mean Temperature 15 °F -  
Max Temperature 32 °F 41 °F 54 °F (1958)
Min Temperature -2 °F 14 °F -6 °F (1960)
Degree Days  
Heating Degree Days 50    
Moisture  
Dew Point 5 °F    
Average Humidity 62    
Maximum Humidity 85    
Minimum Humidity 30    
Precipitation  
Precipitation 0.00 in - - ()
Sea Level Pressure  
Sea Level Pressure 30.01 in    
Wind  
Wind Speed 4 mph (NNW)    
Max Wind Speed 14 mph    
Max Gust Speed 21 mph    
Averages and records for this station are not official NWS values.
T = Trace of Precipitation, MM = Missing Value Source: NWS Daily Summary

Daily Weather History Graph

Daily Weather History Graph

Search for Another Location

Airport:

Trip Planner

Search our weather history database for the weather conditions in past years. The results will help you decide how hot, cold, wet, or windy it might be!

Date:

Astronomy

Feb. 18, 2013 Rise Set
Actual Time 6:54 AM MST 5:45 PM MST
Civil Twilight 6:26 AM MST 6:12 PM MST
Nautical Twilight 5:54 AM MST 6:44 PM MST
Astronomical Twilight 5:23 AM MST 7:15 PM MST
Moon 11:33 AM MST (2/18) 1:36 AM MST (2/18)
Length of Visible Light 11h 46m
Length of Day
10h 51m
First Quarter, 59% of the Moon is Illuminated
Feb 18
First Quarter
Feb 25
Full
Mar 4
Last Quarter
Mar 11
New
Mar 19
First Quarter

Hourly Weather History & Observations

Time (MST) Temp. Windchill Dew Point Humidity Pressure Visibility Wind Dir Wind Speed Gust Speed Precip Events Conditions
12:16 AM 23.0 °F 17.0 °F 10.4 °F 59% 29.84 in - North 4.6 mph - N/A   Overcast
12:36 AM 21.2 °F 16.4 °F 8.6 °F 58% 29.85 in - North 3.5 mph - N/A   Overcast
12:56 AM 21.2 °F 16.4 °F 8.6 °F 58% 29.86 in - NNW 3.5 mph - N/A   Overcast
1:16 AM 21.2 °F 11.7 °F 10.4 °F 63% 29.86 in - NNW 8.1 mph - N/A   Overcast
1:35 AM 21.2 °F 14.9 °F 10.4 °F 63% 29.86 in - NNW 4.6 mph - N/A   Overcast
1:56 AM 19.4 °F 12.8 °F 10.4 °F 68% 29.87 in - NW 4.6 mph - N/A   Overcast
2:16 AM 19.4 °F 12.8 °F 10.4 °F 68% 29.87 in - WSW 4.6 mph - N/A   Overcast
2:36 AM 19.4 °F 10.4 °F 5.0 °F 54% 29.88 in - WNW 6.9 mph - N/A   Overcast
2:55 AM 19.4 °F 14.3 °F 5.0 °F 54% 29.87 in - West 3.5 mph - N/A   Mostly Cloudy
3:16 AM 17.6 °F 9.3 °F 5.0 °F 58% 29.88 in - NNW 5.8 mph - N/A   Mostly Cloudy
3:35 AM 15.8 °F 10.2 °F 5.0 °F 62% 29.89 in - East 3.5 mph - N/A   Overcast
3:55 AM 14.0 °F 5.1 °F 8.6 °F 79% 29.89 in - NE 5.8 mph - N/A   Overcast
4:15 AM 14.0 °F - 8.6 °F 79% 29.91 in - Calm Calm - N/A   Overcast
4:36 AM 14.0 °F - 8.6 °F 79% 29.91 in - Calm Calm - N/A   Scattered Clouds
4:56 AM 10.4 °F 4.0 °F 5.0 °F 79% 29.93 in - East 3.5 mph - N/A   Clear
5:16 AM 10.4 °F - 5.0 °F 79% 29.94 in - Calm Calm - N/A   Clear
5:36 AM 8.6 °F - 3.2 °F 79% 29.95 in - Calm Calm - N/A   Unknown
5:56 AM 5.0 °F - 1.4 °F 85% 29.96 in - Calm Calm - N/A   Mostly Cloudy
6:16 AM 8.6 °F - 3.2 °F 79% 29.97 in - Calm Calm - N/A   Overcast
6:36 AM 10.4 °F 4.0 °F 5.0 °F 79% 29.97 in - SSE 3.5 mph - N/A   Unknown
6:56 AM 10.4 °F 4.0 °F 5.0 °F 79% 29.98 in - ESE 3.5 mph - N/A   Overcast
7:16 AM 8.6 °F - 3.2 °F 79% 29.99 in - Calm Calm - N/A   Mostly Cloudy
7:36 AM 8.6 °F - 3.2 °F 79% 30.00 in - Calm Calm - N/A   Mostly Cloudy
7:56 AM 8.6 °F - 3.2 °F 79% 30.01 in - Calm Calm - N/A   Scattered Clouds
8:16 AM 10.4 °F - 5.0 °F 79% 30.01 in - Calm Calm - N/A   Scattered Clouds
8:35 AM 10.4 °F 4.0 °F 3.2 °F 73% 30.01 in - SE 3.5 mph - N/A   Scattered Clouds
8:56 AM 14.0 °F - 6.8 °F 73% 30.01 in - Calm Calm - N/A   Scattered Clouds
9:16 AM 17.6 °F - 6.8 °F 63% 30.01 in - Calm Calm - N/A   Clear
9:36 AM 21.2 °F 14.9 °F 8.6 °F 58% 30.02 in - East 4.6 mph - N/A   Scattered Clouds
9:56 AM 21.2 °F 14.9 °F 8.6 °F 58% 30.02 in - ENE 4.6 mph - N/A   Overcast
10:16 AM 24.8 °F 20.5 °F 8.6 °F 50% 30.02 in - East 3.5 mph - N/A   Overcast
10:36 AM 24.8 °F 20.5 °F 8.6 °F 50% 30.02 in - East 3.5 mph - N/A   Overcast
10:56 AM 23.0 °F - 8.6 °F 54% 30.02 in - Calm Calm - N/A   Overcast
11:15 AM 23.0 °F - 8.6 °F 54% 30.02 in - Calm Calm - N/A   Overcast
11:36 AM 24.8 °F 14.0 °F 8.6 °F 50% 30.02 in - SW 11.5 mph - N/A   Overcast
11:56 AM 30.2 °F 20.8 °F 10.4 °F 44% 30.02 in - WSW 11.5 mph 17.3 mph N/A   Overcast
12:15 PM 28.4 °F 18.0 °F 10.4 °F 47% 30.01 in - WSW 12.7 mph 17.3 mph N/A   Overcast
12:36 PM 30.2 °F 21.3 °F 10.4 °F 44% 30.01 in - WSW 10.4 mph 19.6 mph N/A   Overcast
12:56 PM 30.2 °F 21.3 °F 12.2 °F 47% 30.01 in - West 10.4 mph - N/A   Overcast
1:16 PM 30.2 °F 21.3 °F 10.4 °F 44% 30.00 in - WSW 10.4 mph 18.4 mph N/A   Overcast
1:36 PM 32.0 °F 24.2 °F 8.6 °F 38% 29.99 in - WNW 9.2 mph - N/A   Overcast
1:55 PM 30.2 °F 19.8 °F 3.2 °F 32% 30.00 in - West 13.8 mph 20.7 mph N/A   Overcast
2:16 PM 30.2 °F 21.9 °F 3.2 °F 32% 30.01 in - WNW 9.2 mph - N/A   Mostly Cloudy
2:36 PM 32.0 °F 23.0 °F 3.2 °F 30% 30.01 in - NW 11.5 mph 18.4 mph N/A   Scattered Clouds
2:56 PM 28.4 °F 18.0 °F 5.0 °F 37% 30.02 in - NNW 12.7 mph 18.4 mph N/A   Clear
3:16 PM 28.4 °F 18.5 °F 5.0 °F 37% 30.02 in - NW 11.5 mph 17.3 mph N/A   Clear
3:36 PM 28.4 °F 17.5 °F 5.0 °F 37% 30.02 in - NNW 13.8 mph 19.6 mph N/A   Clear
3:56 PM 28.4 °F 18.0 °F 6.8 °F 40% 30.02 in - NNW 12.7 mph - N/A   Clear
4:16 PM 26.6 °F 16.8 °F 8.6 °F 47% 30.03 in - North 10.4 mph - N/A   Clear
4:36 PM 24.8 °F 14.6 °F 6.8 °F 46% 30.04 in - North 10.4 mph - N/A   Clear
4:56 PM 23.0 °F 13.1 °F 5.0 °F 46% 30.04 in - North 9.2 mph - N/A   Clear
5:15 PM 23.0 °F - 5.0 °F 46% 30.05 in - Calm Calm - N/A   Clear
5:36 PM 21.2 °F 11.7 °F 5.0 °F 50% 30.06 in - NNE 8.1 mph - N/A   Clear
5:56 PM 19.4 °F 11.5 °F 5.0 °F 54% 30.07 in - North 5.8 mph - N/A   Clear
6:15 PM 17.6 °F - 5.0 °F 58% 30.08 in - Calm Calm - N/A   Clear
6:36 PM 17.6 °F - 5.0 °F 58% 30.08 in - Calm Calm - N/A   Clear
6:56 PM 15.8 °F - 5.0 °F 62% 30.08 in - Calm Calm - N/A   Clear
7:16 PM 12.2 °F - 3.2 °F 67% 30.09 in - Calm Calm - N/A   Clear
7:36 PM 10.4 °F - 1.4 °F 67% 30.09 in - Calm Calm - N/A   Clear
7:56 PM 10.4 °F 2.2 °F 1.4 °F 67% 30.09 in - East 4.6 mph - N/A   Clear
8:16 PM 10.4 °F 4.0 °F 1.4 °F 67% 30.09 in - East 3.5 mph - N/A   Clear
8:36 PM 10.4 °F -0.4 °F 1.4 °F 67% 30.10 in - East 6.9 mph - N/A   Clear
8:56 PM 10.4 °F 4.0 °F 1.4 °F 67% 30.10 in - East 3.5 mph - N/A   Clear
9:16 PM 8.6 °F - 1.4 °F 73% 30.11 in - Calm Calm - N/A   Clear
9:36 PM 8.6 °F - 1.4 °F 73% 30.12 in - Calm Calm - N/A   Clear
9:55 PM 5.0 °F - -0.4 °F 78% 30.12 in - Calm Calm - N/A   Clear
10:16 PM 3.2 °F - -2.2 °F 78% 30.12 in - Calm Calm - N/A   Clear
10:36 PM 1.4 °F - -4.0 °F 78% 30.12 in - Calm Calm - N/A   Clear
10:56 PM 1.4 °F - -4.0 °F 78% 30.12 in - Calm Calm - N/A   Clear
11:16 PM -0.4 °F - -5.8 °F 78% 30.12 in - Calm Calm - N/A   Clear
11:36 PM -2.2 °F - -7.6 °F 78% 30.13 in - Calm Calm - N/A   Clear
11:55 PM -2.2 °F - -7.6 °F 78% 30.13 in - Calm Calm - N/A   Clear